Location: Unspecified
(0.0000°N, 0.0000°E)
Time: 10:20:22
(UTC+00:00)

deb Explorer IX - Pass Details

Date: 13 December 2018
Orbit: 538 x 1115 km, 38.8° (Epoch: 17 January)

Event Time Altitude Azimuth Distance (km) Brightness Sun altitude
Rises 02:05:08 0° 337° (NNW) 3,155 - -50.6°
Reaches altitude 10° 02:07:55 10° 352° (N) 2,337 - -50.1°
Maximum altitude 02:12:15 23° 43° (NE) 1,764 - -49.2°
Drops below altitude 10° 02:17:05 10° 93° (E) 2,662 - -48.3°
Exits shadow 02:17:11 10° 93° (E) 2,690 ? -48.2°
Sets 02:20:29 0° 107° (ESE) 3,712 ? -47.6°
